M I D A S
Marine Information and Data Acquisition System
Tripno 2046 of the Zeeleeuw from 2011-02-23 07:51:06 to 2011-02-23 15:02:59
Back to CruiseResearch ActivitiesStationsMapUnderway DataData graphs

EquipmentUnitsComments
TimeDGPSUTC
LatitudeDGPSDM.mWGS84
LongitudeDGPSDM.mWGS84
SpeedMeteo Stationm/sRelative wind speed
DirectionMeteo StationdegRelative wind direction
TemperatureMeteo Stationdeg CelciusAir temperature
PressureMeteo StationPaAtmospheric pressure
HumidityMeteo Station%Relative humidity
Missing or incorrect values are displayed as -999
Metereological data collected by the RV Zeeleeuw from 2011-02-23 06:56:33 to 2011-02-23 15:09:00
                                                                                    Next 1000 lines
Time Latitude Longitude Speed Direction Temperature Pressure Humidity
2011-02-23 06:56:43 51°13.665 2°55.955 0.7 351 1.1 102050 43
2011-02-23 06:56:48 51°13.665 2°55.956 3.7 348 1.1 102050 43
2011-02-23 06:56:53 51°13.665 2°55.956 2.1 340 1.1 102050 43
2011-02-23 06:56:58 51°13.665 2°55.956 1.5 341 1.1 102050 43
2011-02-23 06:57:03 51°13.665 2°55.956 1.9 356 1.1 102050 43
2011-02-23 06:57:09 51°13.664 2°55.956 2.9 345 1.1 102050 43
2011-02-23 06:57:13 51°13.664 2°55.956 2.8 339 1.1 102050 43
2011-02-23 06:57:18 51°13.665 2°55.956 0.9 347 1.1 102050 42
2011-02-23 06:57:23 51°13.665 2°55.956 2.8 349 1.1 102050 42
2011-02-23 06:57:28 51°13.665 2°55.956 1.3 349 1.1 102050 43
2011-02-23 06:57:33 51°13.665 2°55.957 2.1 281 1.1 102050 43
2011-02-23 06:57:38 51°13.665 2°55.957 3.1 340 1.1 102050 42
2011-02-23 06:57:43 51°13.664 2°55.958 1.9 341 1.1 102050 42
2011-02-23 06:57:48 51°13.664 2°55.958 2 347 1.1 102050 42
2011-02-23 06:57:53 51°13.664 2°55.958 2.3 340 1.1 102050 42
2011-02-23 06:57:58 51°13.664 2°55.958 2.8 359 1.1 102050 43
2011-02-23 06:58:03 51°13.664 2°55.958 2.5 346 1.1 102050 43
2011-02-23 06:58:07 51°13.663 2°55.958 2.2 349 1.1 102050 42
2011-02-23 06:58:13 51°13.662 2°55.958 2.2 340 1.1 102050 42
2011-02-23 06:58:18 51°13.662 2°55.959 1.3 345 1.1 102050 43
2011-02-23 06:58:23 51°13.662 2°55.959 1.1 344 1.1 102050 43
2011-02-23 06:58:28 51°13.662 2°55.959 0.5 344 1.1 102050 44
2011-02-23 06:58:33 51°13.662 2°55.959 0.6 351 1.1 102050 44
2011-02-23 06:58:38 51°13.662 2°55.959 1.6 344 1.1 102060 42
2011-02-23 06:58:43 51°13.662 2°55.959 3.1 348 1.1 102060 42
2011-02-23 06:58:48 51°13.662 2°55.959 3.2 349 1.1 102050 43
2011-02-23 06:58:53 51°13.662 2°55.959 3.5 337 1.1 102050 43
2011-02-23 06:58:58 51°13.662 2°55.959 2.3 350 1.1 102050 43
2011-02-23 06:59:03 51°13.662 2°55.958 3.2 346 1.1 102050 43
2011-02-23 06:59:08 51°13.662 2°55.959 1.2 340 1.1 102060 44
2011-02-23 06:59:13 51°13.662 2°55.959 2.2 348 1.1 102060 44
2011-02-23 06:59:18 51°13.662 2°55.959 0.4 347 1.1 102060 42
2011-02-23 06:59:23 51°13.662 2°55.959 0.1 348 1.1 102060 42
2011-02-23 06:59:28 51°13.662 2°55.96 0.1 350 1.1 102060 43
2011-02-23 06:59:33 51°13.662 2°55.96 0.9 347 1.1 102060 43
2011-02-23 06:59:38 51°13.662 2°55.96 2.1 348 1.1 102060 43
2011-02-23 06:59:43 51°13.662 2°55.96 4.6 347 1.1 102060 43
2011-02-23 06:59:48 51°13.662 2°55.96 5 352 1.1 102050 41
2011-02-23 06:59:53 51°13.661 2°55.96 6.1 347 1.1 102050 41
2011-02-23 06:59:58 51°13.661 2°55.96 4.4 350 1.1 102060 43
2011-02-23 07:00:03 51°13.661 2°55.96 4.3 344 1.1 102060 43
2011-02-23 07:00:08 51°13.661 2°55.96 3.4 342 1.1 102060 42
2011-02-23 07:00:13 51°13.661 2°55.96 3.9 347 1.1 102060 42
2011-02-23 07:00:18 51°13.661 2°55.96 4 338 1.1 102060 43
2011-02-23 07:00:23 51°13.662 2°55.96 4 345 1.1 102060 43
2011-02-23 07:00:28 51°13.662 2°55.96 3.5 343 1.1 102060 43
2011-02-23 07:00:33 51°13.662 2°55.961 3.4 348 1.1 102060 43
2011-02-23 07:00:38 51°13.662 2°55.961 4.6 346 1.1 102060 44
2011-02-23 07:00:43 51°13.662 2°55.961 2.5 344 1.1 102060 44
2011-02-23 07:00:48 51°13.662 2°55.96 4.7 339 1.1 102060 42
2011-02-23 07:00:52 51°13.662 2°55.96 4.9 337 1.1 102060 42
2011-02-23 07:00:58 51°13.662 2°55.959 4.6 333 1.1 102060 42
2011-02-23 07:01:03 51°13.662 2°55.96 3.6 342 1.1 102060 42
2011-02-23 07:01:08 51°13.663 2°55.96 4 345 1.1 102060 44
2011-02-23 07:01:13 51°13.663 2°55.96 4.4 343 1.1 102060 44
2011-02-23 07:01:18 51°13.663 2°55.961 3.6 349 1.1 102060 43
2011-02-23 07:01:23 51°13.663 2°55.961 3.3 337 1.1 102060 43
2011-02-23 07:01:28 51°13.663 2°55.96 4.3 347 1.1 102060 44
2011-02-23 07:01:33 51°13.663 2°55.96 3.4 339 1.1 102060 44
2011-02-23 07:01:38 51°13.663 2°55.96 3.3 342 1.1 102060 44
2011-02-23 07:01:43 51°13.663 2°55.96 5.4 352 1.1 102060 44
2011-02-23 07:01:48 51°13.663 2°55.96 4.9 352 1.2 102060 44
2011-02-23 07:01:52 51°13.663 2°55.96 4.7 351 1.2 102060 44
2011-02-23 07:01:58 51°13.663 2°55.96 5.2 355 1.2 102060 44
2011-02-23 07:02:03 51°13.663 2°55.96 6.3 349 1.2 102060 44
2011-02-23 07:02:08 51°13.663 2°55.961 6.8 353 1.2 102060 42
2011-02-23 07:02:13 51°13.663 2°55.961 4.9 349 1.2 102060 42
2011-02-23 07:02:18 51°13.663 2°55.961 4.4 356 1.1 102060 42
2011-02-23 07:02:23 51°13.662 2°55.961 5 349 1.1 102060 42
2011-02-23 07:02:28 51°13.663 2°55.961 4.4 343 1.1 102060 42
2011-02-23 07:02:33 51°13.663 2°55.961 3.4 351 1.1 102060 42
2011-02-23 07:02:38 51°13.663 2°55.962 3.9 359 1.1 102060 42
2011-02-23 07:02:43 51°13.663 2°55.962 4 349 1.1 102060 42
2011-02-23 07:02:48 51°13.663 2°55.962 4 347 1.1 102060 42
2011-02-23 07:02:53 51°13.663 2°55.962 4.1 356 1.1 102060 42
2011-02-23 07:02:58 51°13.662 2°55.962 3.3 349 1.1 102060 42
2011-02-23 07:03:03 51°13.662 2°55.961 3.5 2 1.1 102060 42
2011-02-23 07:03:08 51°13.662 2°55.961 1.7 348 1.1 102060 42
2011-02-23 07:03:13 51°13.662 2°55.961 3.9 349 1.1 102060 42
2011-02-23 07:03:18 51°13.662 2°55.961 3.8 343 1.1 102060 44
2011-02-23 07:03:23 51°13.662 2°55.961 2.3 353 1.1 102060 44
2011-02-23 07:03:28 51°13.662 2°55.961 4.7 338 1.1 102060 43
2011-02-23 07:03:33 51°13.662 2°55.961 3.3 342 1.1 102060 43
2011-02-23 07:03:38 51°13.662 2°55.961 3.8 355 1.1 102060 42
2011-02-23 07:03:42 51°13.662 2°55.961 2.6 339 1.1 102060 42
2011-02-23 07:03:48 51°13.662 2°55.961 3.7 349 1.1 102060 42
2011-02-23 07:03:53 51°13.662 2°55.96 2.9 345 1.1 102060 42
2011-02-23 07:03:58 51°13.662 2°55.96 3.4 345 1.1 102060 42
2011-02-23 07:04:03 51°13.662 2°55.96 3.1 351 1.1 102060 42
2011-02-23 07:04:08 51°13.662 2°55.961 3.9 349 1.1 102070 42
2011-02-23 07:04:13 51°13.662 2°55.961 3.7 348 1.1 102070 42
2011-02-23 07:04:18 51°13.662 2°55.961 3.5 346 1.1 102070 44
2011-02-23 07:04:23 51°13.663 2°55.96 3.4 350 1.1 102070 44
2011-02-23 07:04:27 51°13.663 2°55.96 2.9 348 1.1 102060 43
2011-02-23 07:04:32 51°13.663 2°55.96 2.7 283 1.1 102060 43
2011-02-23 07:04:38 51°13.663 2°55.96 2.4 351 1.1 102070 42
2011-02-23 07:04:43 51°13.663 2°55.96 1.9 344 1.1 102070 42
2011-02-23 07:04:47 51°13.663 2°55.96 1.6 350 1.1 102060 43
2011-02-23 07:04:53 51°13.663 2°55.96 2.1 344 1.1 102060 43
2011-02-23 07:04:58 51°13.663 2°55.96 2.9 341 1.1 102070 42
2011-02-23 07:05:03 51°13.663 2°55.96 3.7 343 1.1 102070 42
2011-02-23 07:05:08 51°13.663 2°55.96 2.3 341 1.1 102070 42
2011-02-23 07:05:13 51°13.663 2°55.96 2.9 355 1.1 102070 42
2011-02-23 07:05:18 51°13.663 2°55.96 2.3 344 1.1 102070 42
2011-02-23 07:05:23 51°13.663 2°55.96 0.3 343 1.1 102070 42
2011-02-23 07:05:27 51°13.663 2°55.96 0.1 348 1.1 102070 41
2011-02-23 07:05:33 51°13.663 2°55.96 0.1 349 1.1 102070 41
2011-02-23 07:05:37 51°13.663 2°55.96 1.1 348 1.1 102070 43
2011-02-23 07:05:43 51°13.663 2°55.959 0.4 343 1.1 102070 43
2011-02-23 07:05:48 51°13.663 2°55.959 0.2 348 1.1 102070 43
2011-02-23 07:05:53 51°13.663 2°55.96 1.6 339 1.1 102070 43
2011-02-23 07:05:58 51°13.663 2°55.96 0.9 340 1.1 102070 42
2011-02-23 07:06:03 51°13.663 2°55.96 0.6 351 1.1 102070 42
2011-02-23 07:06:08 51°13.663 2°55.96 1.2 354 1.1 102070 43
2011-02-23 07:06:13 51°13.663 2°55.96 2.6 335 1.1 102070 43
2011-02-23 07:06:18 51°13.662 2°55.96 1.2 340 1.1 102070 44
2011-02-23 07:06:23 51°13.662 2°55.96 2.7 342 1.1 102070 44
2011-02-23 07:06:28 51°13.662 2°55.96 2.6 338 1.1 102070 42
2011-02-23 07:06:33 51°13.662 2°55.96 2.7 283 1.1 102070 42
2011-02-23 07:06:38 51°13.662 2°55.96 3 350 1.2 102070 43
2011-02-23 07:06:43 51°13.662 2°55.96 2.2 344 1.2 102070 43
2011-02-23 07:06:48 51°13.662 2°55.96 1.7 350 1.1 102070 43
2011-02-23 07:06:53 51°13.662 2°55.961 1.5 342 1.1 102070 43
2011-02-23 07:06:58 51°13.662 2°55.961 2.7 339 1.2 102070 42
2011-02-23 07:07:03 51°13.662 2°55.961 4 351 1.2 102070 42
2011-02-23 07:07:08 51°13.662 2°55.96 3.8 353 1.1 102070 43
2011-02-23 07:07:13 51°13.662 2°55.96 3.4 353 1.1 102070 43
2011-02-23 07:07:17 51°13.662 2°55.96 3.5 350 1.1 102070 42
2011-02-23 07:07:22 51°13.662 2°55.96 2.5 2 1.1 102070 42
2011-02-23 07:07:28 51°13.663 2°55.959 2 353 1.1 102070 42
2011-02-23 07:07:33 51°13.663 2°55.959 2.5 4 1.1 102070 42
2011-02-23 07:07:38 51°13.663 2°55.959 1.7 353 1.1 102080 42
2011-02-23 07:07:43 51°13.663 2°55.96 2.3 359 1.1 102080 42
2011-02-23 07:07:48 51°13.663 2°55.96 2.9 1 1.1 102070 42
2011-02-23 07:07:53 51°13.663 2°55.96 1.7 354 1.1 102070 42
2011-02-23 07:07:58 51°13.663 2°55.961 0.6 347 1.1 102070 42
2011-02-23 07:08:03 51°13.663 2°55.961 2.6 343 1.1 102070 42
2011-02-23 07:08:08 51°13.663 2°55.961 1 356 1.1 102070 43
2011-02-23 07:08:13 51°13.663 2°55.961 2 346 1.1 102070 43
2011-02-23 07:08:18 51°13.663 2°55.961 1.9 359 1.1 102070 42
2011-02-23 07:08:23 51°13.663 2°55.961 1 345 1.1 102070 42
2011-02-23 07:08:28 51°13.663 2°55.96 1.7 352 1.1 102080 42
2011-02-23 07:08:33 51°13.663 2°55.96 1.4 280 1.1 102080 42
2011-02-23 07:08:38 51°13.663 2°55.96 0.7 350 1.1 102080 43
2011-02-23 07:08:43 51°13.663 2°55.96 0.2 335 1.1 102080 43
2011-02-23 07:08:48 51°13.663 2°55.96 0.2 349 1.1 102070 42
2011-02-23 07:08:53 51°13.663 2°55.96 3.4 344 1.1 102070 42
2011-02-23 07:08:58 51°13.663 2°55.96 4 342 1.1 102070 43
2011-02-23 07:09:03 51°13.663 2°55.96 3.5 346 1.1 102070 43
2011-02-23 07:09:08 51°13.663 2°55.96 3.1 352 1.1 102080 43
2011-02-23 07:09:13 51°13.663 2°55.96 2.2 352 1.1 102080 43
2011-02-23 07:09:18 51°13.663 2°55.96 1.5 355 1.1 102070 44
2011-02-23 07:09:23 51°13.663 2°55.96 2.7 341 1.1 102070 44
2011-02-23 07:09:28 51°13.663 2°55.959 1 347 1.1 102080 42
2011-02-23 07:09:33 51°13.663 2°55.96 1.7 350 1.1 102080 42
2011-02-23 07:09:38 51°13.663 2°55.96 1.3 348 1.1 102070 42
2011-02-23 07:09:43 51°13.663 2°55.959 1.9 345 1.1 102070 42
2011-02-23 07:09:48 51°13.663 2°55.959 1 352 1.1 102070 42
2011-02-23 07:09:53 51°13.663 2°55.96 0.1 344 1.1 102070 42
2011-02-23 07:09:58 51°13.663 2°55.959 1.1 346 1.1 102080 42
2011-02-23 07:10:03 51°13.663 2°55.959 2 337 1.1 102080 42
2011-02-23 07:10:08 51°13.663 2°55.96 1.5 351 1.1 102080 43
2011-02-23 07:10:13 51°13.663 2°55.959 1.8 349 1.1 102080 43
2011-02-23 07:10:18 51°13.663 2°55.959 1.7 345 1.1 102080 43
2011-02-23 07:10:23 51°13.663 2°55.959 0.8 354 1.1 102080 43
2011-02-23 07:10:28 51°13.663 2°55.96 0.2 339 1.1 102080 42
2011-02-23 07:10:33 51°13.663 2°55.96 0.6 282 1.1 102080 42
2011-02-23 07:10:38 51°13.663 2°55.96 0.2 337 1.1 102080 42
2011-02-23 07:10:43 51°13.663 2°55.96 1.3 348 1.1 102080 42
2011-02-23 07:10:47 51°13.663 2°55.96 1.5 347 1.1 102080 43
2011-02-23 07:10:53 51°13.663 2°55.959 1.4 344 1.1 102080 43
2011-02-23 07:10:58 51°13.663 2°55.959 1.5 355 1.1 102080 43
2011-02-23 07:11:03 51°13.663 2°55.959 3 338 1.1 102080 43
2011-02-23 07:11:08 51°13.663 2°55.96 1.3 350 1.1 102080 44
2011-02-23 07:11:13 51°13.663 2°55.96 3.4 350 1.1 102080 44
2011-02-23 07:11:18 51°13.663 2°55.96 2.5 350 1.2 102080 43
2011-02-23 07:11:23 51°13.663 2°55.96 3.3 358 1.2 102080 43
2011-02-23 07:11:28 51°13.663 2°55.96 2.6 350 1.2 102080 42
2011-02-23 07:11:33 51°13.663 2°55.96 3 345 1.2 102080 42
2011-02-23 07:11:38 51°13.663 2°55.96 3.1 337 1.2 102080 42
2011-02-23 07:11:43 51°13.663 2°55.96 0.4 343 1.2 102080 42
2011-02-23 07:11:48 51°13.663 2°55.96 3 342 1.2 102080 43
2011-02-23 07:11:53 51°13.663 2°55.96 2.6 339 1.2 102080 43
2011-02-23 07:11:58 51°13.663 2°55.96 1.9 344 1.1 102080 42
2011-02-23 07:12:03 51°13.663 2°55.96 2.1 348 1.1 102080 42
2011-02-23 07:12:08 51°13.663 2°55.96 3.8 351 1.1 102080 42
2011-02-23 07:12:13 51°13.663 2°55.96 1.9 351 1.1 102080 42
2011-02-23 07:12:18 51°13.663 2°55.96 2.2 342 1.1 102080 42
2011-02-23 07:12:23 51°13.662 2°55.96 2.8 345 1.1 102080 42
2011-02-23 07:12:28 51°13.662 2°55.96 2.3 355 1.2 102080 43
2011-02-23 07:12:33 51°13.662 2°55.96 2 352 1.2 102080 43
2011-02-23 07:12:38 51°13.662 2°55.96 0.9 352 1.1 102080 43
2011-02-23 07:12:43 51°13.662 2°55.96 0.2 355 1.1 102080 43
2011-02-23 07:12:48 51°13.662 2°55.96 1.2 352 1.1 102080 42
2011-02-23 07:12:53 51°13.662 2°55.96 1.5 346 1.1 102080 42
2011-02-23 07:12:58 51°13.662 2°55.96 0.6 354 1.1 102090 42
2011-02-23 07:13:03 51°13.663 2°55.959 0.1 345 1.1 102090 42
2011-02-23 07:13:08 51°13.662 2°55.96 1.6 342 1.1 102080 44
2011-02-23 07:13:13 51°13.662 2°55.96 0.3 351 1.1 102080 44
2011-02-23 07:13:17 51°13.662 2°55.96 0.1 341 1.1 102080 42
2011-02-23 07:13:22 51°13.662 2°55.96 0.1 345 1.1 102080 42
2011-02-23 07:13:28 51°13.662 2°55.96 2.1 346 1.1 102080 41
2011-02-23 07:13:33 51°13.662 2°55.96 1 343 1.1 102080 41
2011-02-23 07:13:38 51°13.662 2°55.96 0.2 356 1.1 102080 43
2011-02-23 07:13:43 51°13.662 2°55.96 0.8 355 1.1 102080 43
2011-02-23 07:13:48 51°13.662 2°55.96 2.2 345 1.1 102080 42
2011-02-23 07:13:53 51°13.662 2°55.96 0.3 357 1.1 102080 42
2011-02-23 07:13:58 51°13.662 2°55.96 0.1 352 1.1 102080 43
2011-02-23 07:14:03 51°13.662 2°55.96 1.9 358 1.1 102080 43
2011-02-23 07:14:08 51°13.662 2°55.961 2.3 357 1.1 102080 43
2011-02-23 07:14:13 51°13.662 2°55.961 2 350 1.1 102080 43
2011-02-23 07:14:18 51°13.662 2°55.961 0.3 359 1.2 102080 43
2011-02-23 07:14:23 51°13.662 2°55.961 0.1 350 1.2 102080 43
2011-02-23 07:14:27 51°13.662 2°55.961 0.1 346 1.1 102080 43
2011-02-23 07:14:32 51°13.662 2°55.961 0.1 348 1.1 102080 43
2011-02-23 07:14:38 51°13.662 2°55.96 2 334 1.1 102080 42
2011-02-23 07:14:43 51°13.662 2°55.961 3.1 342 1.1 102080 42
2011-02-23 07:14:48 51°13.662 2°55.961 3 344 1.1 102080 42
2011-02-23 07:14:53 51°13.662 2°55.96 0.6 348 1.1 102080 42
2011-02-23 07:14:58 51°13.662 2°55.961 0.1 349 1.1 102080 42
2011-02-23 07:15:03 51°13.662 2°55.961 0.1 349 1.1 102080 42
2011-02-23 07:15:08 51°13.662 2°55.962 1.1 352 1.1 102080 44
2011-02-23 07:15:13 51°13.662 2°55.961 0.4 357 1.1 102080 44
2011-02-23 07:15:18 51°13.662 2°55.96 0.1 5 1.1 102080 42
2011-02-23 07:15:23 51°13.662 2°55.96 0.1 347 1.1 102080 42
2011-02-23 07:15:28 51°13.662 2°55.96 0.1 351 1.2 102080 43
2011-02-23 07:15:33 51°13.662 2°55.96 -999 345 1.2 102080 43
2011-02-23 07:15:38 51°13.662 2°55.96 -999 346 1.2 102080 42
2011-02-23 07:15:42 51°13.662 2°55.96 -999 344 1.2 102080 42
2011-02-23 07:15:47 51°13.662 2°55.959 -999 348 1.2 102080 43
2011-02-23 07:15:53 51°13.662 2°55.96 -999 350 1.2 102080 43
2011-02-23 07:15:58 51°13.662 2°55.96 0.1 354 1.2 102080 43
2011-02-23 07:16:03 51°13.662 2°55.96 0.2 351 1.2 102080 43
2011-02-23 07:16:08 51°13.662 2°55.96 0.1 349 1.2 102090 42
2011-02-23 07:16:13 51°13.662 2°55.961 3.6 350 1.2 102090 42
2011-02-23 07:16:18 51°13.662 2°55.96 3.6 357 1.2 102090 43
2011-02-23 07:16:23 51°13.662 2°55.96 1.6 354 1.2 102090 43
2011-02-23 07:16:28 51°13.662 2°55.96 0.5 353 1.2 102090 42
2011-02-23 07:16:33 51°13.662 2°55.96 2.6 358 1.2 102090 42
2011-02-23 07:16:38 51°13.662 2°55.96 2.5 2 1.2 102080 42
2011-02-23 07:16:43 51°13.662 2°55.96 2.5 337 1.2 102080 42
2011-02-23 07:16:48 51°13.662 2°55.96 1 343 1.2 102090 42
2011-02-23 07:16:53 51°13.662 2°55.96 3 356 1.2 102090 42
2011-02-23 07:16:58 51°13.662 2°55.96 1 1 1.2 102080 43
2011-02-23 07:17:03 51°13.662 2°55.96 2.7 345 1.2 102080 43
2011-02-23 07:17:08 51°13.662 2°55.959 3.7 354 1.1 102080 42
2011-02-23 07:17:13 51°13.662 2°55.959 3.5 355 1.1 102080 42
2011-02-23 07:17:18 51°13.661 2°55.959 3.8 354 1.2 102090 41
2011-02-23 07:17:23 51°13.661 2°55.959 2.9 350 1.2 102090 41
2011-02-23 07:17:28 51°13.661 2°55.959 2.8 349 1.2 102090 42
2011-02-23 07:17:32 51°13.661 2°55.959 1.6 -999 1.2 102090 42
2011-02-23 07:17:37 51°13.661 2°55.959 1.9 350 1.1 102090 43
2011-02-23 07:17:42 51°13.661 2°55.959 1.4 350 1.1 102090 43
2011-02-23 07:17:48 51°13.661 2°55.959 1.7 1 1.1 102080 43
2011-02-23 07:17:53 51°13.661 2°55.959 2.1 355 1.1 102080 43
2011-02-23 07:17:58 51°13.661 2°55.959 2.1 351 1.1 102080 43
2011-02-23 07:18:03 51°13.661 2°55.959 0.4 334 1.1 102080 43
2011-02-23 07:18:08 51°13.661 2°55.959 0.2 352 1.1 102080 42
2011-02-23 07:18:13 51°13.661 2°55.959 0.1 346 1.1 102080 42
2011-02-23 07:18:18 51°13.661 2°55.959 -999 335 1.1 102080 42
2011-02-23 07:18:23 51°13.661 2°55.96 1.8 348 1.1 102080 42
2011-02-23 07:18:28 51°13.661 2°55.959 3 347 1.1 102080 42
2011-02-23 07:18:33 51°13.661 2°55.959 4.3 351 1.1 102080 42
2011-02-23 07:18:38 51°13.661 2°55.959 5.3 351 1.1 102080 43
2011-02-23 07:18:43 51°13.662 2°55.959 4.7 354 1.1 102080 43
2011-02-23 07:18:48 51°13.662 2°55.959 5 351 1.1 102090 42
2011-02-23 07:18:53 51°13.662 2°55.959 4.8 350 1.1 102090 42
2011-02-23 07:18:58 51°13.662 2°55.959 5.1 349 1.2 102080 43
2011-02-23 07:19:02 51°13.662 2°55.959 3.8 352 1.2 102080 43
2011-02-23 07:19:08 51°13.662 2°55.959 3.8 359 1.1 102080 43
2011-02-23 07:19:13 51°13.662 2°55.959 4.9 356 1.1 102080 43
2011-02-23 07:19:18 51°13.661 2°55.959 2.4 355 1.1 102080 42
2011-02-23 07:19:23 51°13.662 2°55.959 2.3 355 1.1 102080 42
2011-02-23 07:19:28 51°13.661 2°55.959 3.4 352 1.1 102080 43
2011-02-23 07:19:33 51°13.661 2°55.959 3 347 1.1 102080 43
2011-02-23 07:19:38 51°13.661 2°55.959 0.6 347 1.1 102080 43
2011-02-23 07:19:43 51°13.662 2°55.959 0.4 349 1.1 102080 43
2011-02-23 07:19:47 51°13.662 2°55.959 3 352 1.1 102080 43
2011-02-23 07:19:53 51°13.661 2°55.959 3.4 350 1.1 102080 43
2011-02-23 07:19:58 51°13.662 2°55.959 3.4 354 1.1 102080 42
2011-02-23 07:20:03 51°13.661 2°55.959 2.7 353 1.1 102080 42
2011-02-23 07:20:08 51°13.661 2°55.959 3.9 356 1.1 102080 41
2011-02-23 07:20:13 51°13.661 2°55.959 4 360 1.1 102080 41
2011-02-23 07:20:18 51°13.662 2°55.959 3.1 342 1.1 102080 43
2011-02-23 07:20:23 51°13.661 2°55.959 3.5 337 1.1 102080 43
2011-02-23 07:20:28 51°13.661 2°55.959 3.5 350 1.2 102090 42
2011-02-23 07:20:33 51°13.661 2°55.959 1.5 282 1.2 102090 42
2011-02-23 07:20:38 51°13.661 2°55.959 2.8 359 1.2 102080 43
2011-02-23 07:20:43 51°13.661 2°55.96 2.6 349 1.2 102080 43
2011-02-23 07:20:48 51°13.661 2°55.959 4.2 351 1.2 102080 43
2011-02-23 07:20:53 51°13.661 2°55.96 5 344 1.2 102080 43
2011-02-23 07:20:58 51°13.66 2°55.96 4.7 2 1.2 102090 42
2011-02-23 07:21:03 51°13.66 2°55.96 5.8 345 1.2 102090 42
2011-02-23 07:21:07 51°13.66 2°55.96 5.9 342 1.1 102080 42
2011-02-23 07:21:13 51°13.66 2°55.96 5.4 343 1.1 102080 42
2011-02-23 07:21:18 51°13.66 2°55.96 5.1 344 1.1 102080 43
2011-02-23 07:21:23 51°13.66 2°55.96 4.7 341 1.1 102080 43
2011-02-23 07:21:28 51°13.66 2°55.96 4.1 351 1.2 102080 42
2011-02-23 07:21:33 51°13.66 2°55.96 5.2 351 1.2 102080 42
2011-02-23 07:21:38 51°13.66 2°55.96 3.1 348 1.2 102080 42
2011-02-23 07:21:43 51°13.66 2°55.96 4.2 345 1.2 102080 42
2011-02-23 07:21:48 51°13.66 2°55.96 5 351 1.1 102080 43
2011-02-23 07:21:53 51°13.66 2°55.96 2.9 349 1.1 102080 43
2011-02-23 07:21:58 51°13.66 2°55.96 3 345 1.2 102080 41
2011-02-23 07:22:03 51°13.66 2°55.96 2.2 352 1.2 102080 41
2011-02-23 07:22:08 51°13.66 2°55.96 3.8 347 1.2 102080 43
2011-02-23 07:22:13 51°13.66 2°55.96 5.5 345 1.2 102080 43
2011-02-23 07:22:18 51°13.66 2°55.96 4.2 347 1.2 102080 41
2011-02-23 07:22:23 51°13.661 2°55.96 4.9 357 1.2 102080 41
2011-02-23 07:22:28 51°13.661 2°55.96 4.9 349 1.2 102080 41
2011-02-23 07:22:33 51°13.661 2°55.959 4 351 1.2 102080 41
2011-02-23 07:22:37 51°13.661 2°55.959 4.2 345 1.2 102080 41
2011-02-23 07:22:43 51°13.661 2°55.959 4.2 350 1.2 102080 41
2011-02-23 07:22:47 51°13.661 2°55.959 5 358 1.2 102080 41
2011-02-23 07:22:53 51°13.661 2°55.959 5 352 1.2 102080 41
2011-02-23 07:22:58 51°13.661 2°55.959 4.8 1 1.2 102080 42
2011-02-23 07:23:03 51°13.661 2°55.959 5.5 351 1.2 102080 42
2011-02-23 07:23:08 51°13.661 2°55.959 4.5 339 1.2 102080 43
2011-02-23 07:23:13 51°13.661 2°55.959 4.6 337 1.2 102080 43
2011-02-23 07:23:18 51°13.661 2°55.959 5.1 342 1.2 102080 43
2011-02-23 07:23:23 51°13.661 2°55.959 5.1 351 1.2 102080 43
2011-02-23 07:23:27 51°13.661 2°55.959 3.5 350 1.2 102080 43
2011-02-23 07:23:33 51°13.661 2°55.959 3.8 349 1.2 102080 43
2011-02-23 07:23:37 51°13.661 2°55.959 0.3 329 1.2 102080 41
2011-02-23 07:23:43 51°13.661 2°55.959 1.9 338 1.2 102080 41
2011-02-23 07:23:48 51°13.661 2°55.96 1.7 342 1.2 102080 43
2011-02-23 07:23:53 51°13.661 2°55.959 1.6 347 1.2 102080 43
2011-02-23 07:23:58 51°13.66 2°55.96 1.9 349 1.2 102080 42
2011-02-23 07:24:03 51°13.661 2°55.96 4.5 -999 1.2 102080 42
2011-02-23 07:24:08 51°13.661 2°55.96 6.7 353 1.2 102080 40
2011-02-23 07:24:13 51°13.661 2°55.96 5.1 345 1.2 102080 40
2011-02-23 07:24:18 51°13.661 2°55.96 3.3 355 1.2 102080 42
2011-02-23 07:24:23 51°13.661 2°55.96 3.8 354 1.2 102080 42
2011-02-23 07:24:28 51°13.661 2°55.96 3.1 356 1.2 102080 43
2011-02-23 07:24:33 51°13.661 2°55.96 1.9 284 1.2 102080 43
2011-02-23 07:24:38 51°13.661 2°55.959 1.3 357 1.2 102080 43
2011-02-23 07:24:43 51°13.661 2°55.96 4.6 354 1.2 102080 43
2011-02-23 07:24:48 51°13.661 2°55.96 3.7 356 1.2 102080 43
2011-02-23 07:24:53 51°13.661 2°55.96 4.6 359 1.2 102080 43
2011-02-23 07:24:57 51°13.661 2°55.96 4.2 354 1.2 102080 42
2011-02-23 07:25:02 51°13.661 2°55.959 2.7 347 1.2 102080 42
2011-02-23 07:25:07 51°13.661 2°55.959 5.1 338 1.2 102080 42
2011-02-23 07:25:13 51°13.661 2°55.96 4.5 352 1.2 102080 42
2011-02-23 07:25:18 51°13.661 2°55.96 5.1 349 1.2 102080 42
2011-02-23 07:25:23 51°13.661 2°55.96 4.1 2 1.2 102080 42
2011-02-23 07:25:28 51°13.662 2°55.96 4.1 352 1.2 102080 41
2011-02-23 07:25:33 51°13.661 2°55.959 2.4 346 1.2 102080 41
2011-02-23 07:25:38 51°13.661 2°55.96 1.7 334 1.2 102080 43
2011-02-23 07:25:43 51°13.661 2°55.96 4.9 347 1.2 102080 43
2011-02-23 07:25:48 51°13.662 2°55.96 5.9 343 1.2 102080 43
2011-02-23 07:25:53 51°13.662 2°55.96 4.6 348 1.2 102080 43
2011-02-23 07:25:58 51°13.662 2°55.96 3.6 1 1.2 102080 41
2011-02-23 07:26:03 51°13.661 2°55.96 4.9 349 1.2 102080 41
2011-02-23 07:26:08 51°13.662 2°55.96 3.5 351 1.2 102080 42
2011-02-23 07:26:13 51°13.661 2°55.96 4.2 349 1.2 102080 42
2011-02-23 07:26:18 51°13.661 2°55.96 5 359 1.2 102080 43
2011-02-23 07:26:23 51°13.662 2°55.96 2.2 349 1.2 102080 43
2011-02-23 07:26:28 51°13.662 2°55.96 2.2 350 1.2 102080 43
2011-02-23 07:26:33 51°13.662 2°55.96 2.5 285 1.2 102080 43
2011-02-23 07:26:38 51°13.661 2°55.96 1.5 1 1.2 102080 41
2011-02-23 07:26:42 51°13.662 2°55.96 0.2 353 1.2 102080 41
2011-02-23 07:26:48 51°13.662 2°55.96 2.7 349 1.2 102080 40
2011-02-23 07:26:53 51°13.662 2°55.96 1.6 350 1.2 102080 40
2011-02-23 07:26:58 51°13.662 2°55.96 4 342 1.2 102080 42
2011-02-23 07:27:03 51°13.662 2°55.96 3.1 347 1.2 102080 42
2011-02-23 07:27:08 51°13.661 2°55.96 4.9 344 1.2 102090 42
2011-02-23 07:27:13 51°13.662 2°55.96 5 343 1.2 102090 42
2011-02-23 07:27:18 51°13.661 2°55.96 3.9 340 1.2 102080 42
2011-02-23 07:27:23 51°13.661 2°55.96 4.7 351 1.2 102080 42
2011-02-23 07:27:28 51°13.661 2°55.96 4.8 352 1.2 102080 42
2011-02-23 07:27:33 51°13.661 2°55.96 3.7 349 1.2 102080 42
2011-02-23 07:27:38 51°13.661 2°55.96 4.7 354 1.2 102090 42
2011-02-23 07:27:43 51°13.661 2°55.96 4.1 348 1.2 102090 42
2011-02-23 07:27:48 51°13.661 2°55.96 3.9 347 1.2 102090 43
2011-02-23 07:27:53 51°13.662 2°55.96 3.3 342 1.2 102090 43
2011-02-23 07:27:58 51°13.662 2°55.96 3.4 338 1.2 102080 41
2011-02-23 07:28:03 51°13.662 2°55.96 4.3 336 1.2 102080 41
2011-02-23 07:28:08 51°13.662 2°55.96 3.5 340 1.2 102090 43
2011-02-23 07:28:13 51°13.662 2°55.96 3.1 348 1.2 102090 43
2011-02-23 07:28:18 51°13.662 2°55.96 3.4 346 1.2 102090 43
2011-02-23 07:28:23 51°13.662 2°55.96 4.3 358 1.2 102090 43
2011-02-23 07:28:28 51°13.662 2°55.96 4.1 347 1.2 102090 41
2011-02-23 07:28:33 51°13.662 2°55.96 3.9 280 1.2 102090 41
2011-02-23 07:28:38 51°13.662 2°55.96 3.2 351 1.2 102090 41
2011-02-23 07:28:43 51°13.662 2°55.96 3.5 340 1.2 102090 41
2011-02-23 07:28:48 51°13.662 2°55.96 4.5 339 1.2 102090 43
2011-02-23 07:28:53 51°13.662 2°55.96 4.9 350 1.2 102090 43
2011-02-23 07:28:58 51°13.662 2°55.96 3.4 356 1.2 102080 43
2011-02-23 07:29:03 51°13.662 2°55.959 4.1 347 1.2 102080 43
2011-02-23 07:29:07 51°13.662 2°55.959 5.1 340 1.2 102090 43
2011-02-23 07:29:12 51°13.663 2°55.96 2.7 346 1.2 102090 43
2011-02-23 07:29:18 51°13.663 2°55.959 3.3 336 1.2 102090 42
2011-02-23 07:29:23 51°13.663 2°55.959 4.1 338 1.2 102090 42
2011-02-23 07:29:28 51°13.663 2°55.96 4.6 348 1.2 102080 40
2011-02-23 07:29:33 51°13.663 2°55.96 3.5 344 1.2 102080 40
2011-02-23 07:29:38 51°13.663 2°55.959 3.3 343 1.2 102090 42
2011-02-23 07:29:43 51°13.663 2°55.959 4.2 354 1.2 102090 42
2011-02-23 07:29:48 51°13.663 2°55.959 5.6 357 1.2 102090 43
2011-02-23 07:29:52 51°13.663 2°55.959 5.3 351 1.2 102090 43
2011-02-23 07:29:58 51°13.663 2°55.959 4.9 350 1.2 102090 42
2011-02-23 07:30:03 51°13.663 2°55.959 4.4 336 1.2 102090 42
2011-02-23 07:30:08 51°13.663 2°55.959 5 346 1.2 102090 41
2011-02-23 07:30:13 51°13.663 2°55.959 4.5 351 1.2 102090 41
2011-02-23 07:30:18 51°13.663 2°55.959 4.2 352 1.2 102080 43
2011-02-23 07:30:23 51°13.663 2°55.959 5.9 348 1.2 102080 43
2011-02-23 07:30:28 51°13.664 2°55.959 4.6 350 1.2 102080 43
2011-02-23 07:30:33 51°13.664 2°55.959 4.9 350 1.2 102080 43
2011-02-23 07:30:38 51°13.664 2°55.959 5.1 350 1.2 102090 41
2011-02-23 07:30:43 51°13.663 2°55.959 4.8 351 1.2 102090 41
2011-02-23 07:30:48 51°13.663 2°55.959 4.4 351 1.2 102090 43
2011-02-23 07:30:53 51°13.663 2°55.959 5 357 1.2 102090 43
2011-02-23 07:30:57 51°13.663 2°55.959 4.3 346 1.2 102080 41
2011-02-23 07:31:03 51°13.663 2°55.959 4.7 356 1.2 102080 41
2011-02-23 07:31:08 51°13.663 2°55.96 4.6 343 1.2 102090 43
2011-02-23 07:31:13 51°13.663 2°55.96 2.9 346 1.2 102090 43
2011-02-23 07:31:18 51°13.663 2°55.96 4.6 356 1.2 102090 41
2011-02-23 07:31:23 51°13.663 2°55.96 3.3 348 1.2 102090 41
2011-02-23 07:31:28 51°13.662 2°55.96 3.1 350 1.2 102090 43
2011-02-23 07:31:33 51°13.662 2°55.96 4.3 354 1.2 102090 43
2011-02-23 07:31:38 51°13.663 2°55.96 3.1 345 1.2 102090 41
2011-02-23 07:31:43 51°13.663 2°55.959 2.7 350 1.2 102090 41
2011-02-23 07:31:48 51°13.663 2°55.959 5.3 348 1.2 102090 42
2011-02-23 07:31:53 51°13.663 2°55.96 4.5 360 1.2 102090 42
2011-02-23 07:31:58 51°13.663 2°55.96 5 347 1.2 102090 43
2011-02-23 07:32:03 51°13.663 2°55.96 3.9 345 1.2 102090 43
2011-02-23 07:32:08 51°13.663 2°55.96 3.4 345 1.2 102090 42
2011-02-23 07:32:13 51°13.663 2°55.96 2.6 342 1.2 102090 42
2011-02-23 07:32:18 51°13.663 2°55.96 4.3 342 1.2 102080 41
2011-02-23 07:32:23 51°13.663 2°55.96 4.2 344 1.2 102080 41
2011-02-23 07:32:28 51°13.663 2°55.959 4.3 337 1.2 102090 42
2011-02-23 07:32:33 51°13.663 2°55.959 4.2 347 1.2 102090 42
2011-02-23 07:32:38 51°13.663 2°55.959 4.7 355 1.2 102080 41
2011-02-23 07:32:43 51°13.663 2°55.959 5.2 352 1.2 102080 41
2011-02-23 07:32:48 51°13.663 2°55.959 4.6 359 1.2 102090 42
2011-02-23 07:32:53 51°13.664 2°55.959 4.2 343 1.2 102090 42
2011-02-23 07:32:58 51°13.664 2°55.959 3.7 354 1.2 102090 43
2011-02-23 07:33:03 51°13.664 2°55.959 3.1 345 1.2 102090 43
2011-02-23 07:33:08 51°13.664 2°55.959 4.4 344 1.2 102090 43
2011-02-23 07:33:13 51°13.664 2°55.959 4.6 337 1.2 102090 43
2011-02-23 07:33:18 51°13.664 2°55.959 5.2 340 1.2 102080 43
2011-02-23 07:33:23 51°13.664 2°55.959 4.5 345 1.2 102080 43
2011-02-23 07:33:28 51°13.664 2°55.959 5.1 352 1.2 102080 42
2011-02-23 07:33:33 51°13.664 2°55.959 4.5 357 1.2 102080 42
2011-02-23 07:33:38 51°13.664 2°55.959 3.7 353 1.2 102080 43
2011-02-23 07:33:43 51°13.664 2°55.959 3.8 346 1.2 102080 43
2011-02-23 07:33:47 51°13.664 2°55.959 3.5 355 1.2 102080 41
2011-02-23 07:33:53 51°13.664 2°55.959 2.7 359 1.2 102080 41
2011-02-23 07:33:58 51°13.664 2°55.959 3.4 359 1.2 102080 43
2011-02-23 07:34:03 51°13.664 2°55.959 3.8 346 1.2 102080 43
2011-02-23 07:34:08 51°13.664 2°55.959 3.7 346 1.2 102090 43
2011-02-23 07:34:13 51°13.664 2°55.959 3.6 349 1.2 102090 43
2011-02-23 07:34:18 51°13.664 2°55.959 6.4 349 1.2 102090 42
2011-02-23 07:34:23 51°13.664 2°55.959 3.8 358 1.2 102090 42
2011-02-23 07:34:28 51°13.664 2°55.959 3.8 -999 1.2 102080 43
2011-02-23 07:34:33 51°13.664 2°55.959 4.7 3 1.2 102080 43
2011-02-23 07:34:38 51°13.664 2°55.959 4.6 353 1.2 102090 43
2011-02-23 07:34:43 51°13.664 2°55.959 2.7 356 1.2 102090 43
2011-02-23 07:34:48 51°13.664 2°55.959 0.7 341 1.2 102090 41
2011-02-23 07:34:53 51°13.664 2°55.959 5.2 343 1.2 102090 41
2011-02-23 07:34:57 51°13.664 2°55.959 3.8 356 1.2 102090 43
2011-02-23 07:35:03 51°13.664 2°55.959 3 352 1.2 102090 43
2011-02-23 07:35:08 51°13.664 2°55.959 5 355 1.2 102090 43
2011-02-23 07:35:13 51°13.664 2°55.959 5.1 340 1.2 102090 43
2011-02-23 07:35:18 51°13.664 2°55.959 3.5 349 1.2 102080 42
2011-02-23 07:35:23 51°13.664 2°55.959 3.2 350 1.2 102080 42
2011-02-23 07:35:28 51°13.664 2°55.959 4.5 352 1.2 102090 43
2011-02-23 07:35:32 51°13.664 2°55.959 5.5 347 1.2 102090 43
2011-02-23 07:35:38 51°13.664 2°55.959 5.5 347 1.2 102090 43
2011-02-23 07:35:43 51°13.664 2°55.959 5.5 347 1.2 102090 43
2011-02-23 07:35:48 51°13.664 2°55.959 5.5 347 1.2 102090 43
2011-02-23 07:35:53 51°13.664 2°55.959 5.5 347 1.2 102090 43
2011-02-23 07:35:58 51°13.664 2°55.959 5.5 347 -999 -999 -999
2011-02-23 07:36:03 51°13.665 2°55.959 -999 -999 -999 -999 -999
2011-02-23 07:36:08 51°13.665 2°55.959 -999 -999 -999 -999 -999
2011-02-23 07:36:13 51°13.665 2°55.959 -999 -999 -999 -999 -999
2011-02-23 07:36:18 51°13.665 2°55.959 -999 350 -999 -999 -999
2011-02-23 07:36:23 51°13.665 2°55.959 2.8 344 -999 -999 -999
2011-02-23 07:36:28 51°13.665 2°55.959 3.7 358 -999 -999 -999
2011-02-23 07:36:33 51°13.665 2°55.959 6.3 349 -999 -999 -999
2011-02-23 07:36:38 51°13.664 2°55.959 3.8 353 1.2 -999 28
2011-02-23 07:36:43 51°13.664 2°55.959 4.2 350 1.2 -999 28
2011-02-23 07:36:48 51°13.665 2°55.959 1.6 358 1.2 -999 44
2011-02-23 07:36:53 51°13.665 2°55.959 2.1 348 1.2 -999 44
2011-02-23 07:36:57 51°13.665 2°55.959 3.1 354 1.2 102080 41
2011-02-23 07:37:02 51°13.664 2°55.959 2.5 346 1.2 102080 41
2011-02-23 07:37:07 51°13.665 2°55.959 2.8 353 1.2 102080 42
2011-02-23 07:37:13 51°13.664 2°55.959 2.2 349 1.2 102080 42
2011-02-23 07:37:17 51°13.665 2°55.959 1.7 345 1.2 102080 43
2011-02-23 07:37:22 51°13.665 2°55.959 2.6 4 1.2 102080 43
2011-02-23 07:37:27 51°13.665 2°55.96 1.1 359 1.2 102080 42
2011-02-23 07:37:32 51°13.665 2°55.96 3.7 339 1.2 102080 42
2011-02-23 07:37:38 51°13.665 2°55.96 2.6 357 1.2 102080 41
2011-02-23 07:37:43 51°13.665 2°55.96 2.7 352 1.2 102080 41
2011-02-23 07:37:48 51°13.665 2°55.96 4.1 357 1.2 102080 42
2011-02-23 07:37:53 51°13.664 2°55.96 2.8 351 1.2 102080 42
2011-02-23 07:37:58 51°13.664 2°55.96 1.2 340 1.2 102080 43
2011-02-23 07:38:03 51°13.664 2°55.96 1 347 1.2 102080 43
2011-02-23 07:38:07 51°13.664 2°55.96 1.9 349 1.2 102080 41
2011-02-23 07:38:12 51°13.664 2°55.96 4.1 350 1.2 102080 41
2011-02-23 07:38:18 51°13.663 2°55.96 4.6 344 1.2 102080 41
2011-02-23 07:38:23 51°13.663 2°55.96 4.3 348 1.2 102080 41
2011-02-23 07:38:28 51°13.663 2°55.96 5.6 347 1.2 102080 41
2011-02-23 07:38:32 51°13.663 2°55.96 5.6 352 1.2 102080 41
2011-02-23 07:38:37 51°13.663 2°55.96 4.4 350 1.2 102080 41
2011-02-23 07:38:43 51°13.663 2°55.961 3.8 350 1.2 102080 41
2011-02-23 07:38:48 51°13.663 2°55.96 4.4 352 1.2 102080 41
2011-02-23 07:38:53 51°13.663 2°55.96 1.8 355 1.2 102080 41
2011-02-23 07:38:58 51°13.663 2°55.96 3.4 348 1.2 102080 42
2011-02-23 07:39:03 51°13.663 2°55.961 2.8 350 1.2 102080 42
2011-02-23 07:39:07 51°13.663 2°55.961 1.7 2 1.2 102080 43
2011-02-23 07:39:13 51°13.663 2°55.96 4.1 -999 1.2 102080 43
2011-02-23 07:39:18 51°13.663 2°55.96 3.5 346 1.2 102080 42
2011-02-23 07:39:22 51°13.663 2°55.96 4.2 3 1.2 102080 42
2011-02-23 07:39:27 51°13.663 2°55.96 2.3 348 1.2 102080 43
2011-02-23 07:39:32 51°13.663 2°55.96 2.7 350 1.2 102080 43
2011-02-23 07:39:38 51°13.664 2°55.96 3.9 351 1.2 102080 42
2011-02-23 07:39:43 51°13.664 2°55.96 4.5 356 1.2 102080 42
2011-02-23 07:39:48 51°13.664 2°55.96 5.6 350 1.2 102080 43
2011-02-23 07:39:53 51°13.664 2°55.96 3 -999 1.2 102080 43
2011-02-23 07:39:58 51°13.663 2°55.96 5.1 358 1.2 102080 41
2011-02-23 07:40:03 51°13.663 2°55.96 2.6 356 1.2 102080 41
2011-02-23 07:40:08 51°13.663 2°55.96 2.7 351 1.2 102080 42
2011-02-23 07:40:13 51°13.663 2°55.96 4.5 344 1.2 102080 42
2011-02-23 07:40:17 51°13.664 2°55.96 4.8 356 1.2 102080 43
2011-02-23 07:40:23 51°13.664 2°55.96 4.6 351 1.2 102080 43
2011-02-23 07:40:28 51°13.664 2°55.96 4.4 350 1.2 102080 43
2011-02-23 07:40:32 51°13.664 2°55.96 4.8 360 1.2 102080 43
2011-02-23 07:40:37 51°13.664 2°55.96 5.3 351 1.2 102080 43
2011-02-23 07:40:43 51°13.664 2°55.96 5.5 351 1.2 102080 43
2011-02-23 07:40:48 51°13.664 2°55.96 4.7 -999 1.2 102080 41
2011-02-23 07:40:52 51°13.664 2°55.961 6.2 1 1.2 102080 41
2011-02-23 07:40:58 51°13.664 2°55.961 3.9 341 1.2 102080 43
2011-02-23 07:41:03 51°13.664 2°55.961 4.4 345 1.2 102080 43
2011-02-23 07:41:08 51°13.664 2°55.961 4.1 349 1.2 102080 41
2011-02-23 07:41:12 51°13.664 2°55.961 3.4 349 1.2 102080 41
2011-02-23 07:41:17 51°13.664 2°55.961 3.8 344 1.2 102080 41
2011-02-23 07:41:23 51°13.664 2°55.961 4.2 345 1.2 102080 41
2011-02-23 07:41:28 51°13.664 2°55.961 3.9 350 1.2 102080 43
2011-02-23 07:41:33 51°13.664 2°55.961 4.1 342 1.2 102080 43
2011-02-23 07:41:38 51°13.664 2°55.961 3.2 343 1.2 102080 43
2011-02-23 07:41:43 51°13.664 2°55.961 2.3 347 1.2 102080 43
2011-02-23 07:41:48 51°13.664 2°55.961 2.3 347 1.2 102080 43
2011-02-23 07:41:53 51°13.664 2°55.961 3.7 346 1.2 102080 43
2011-02-23 07:41:58 51°13.663 2°55.961 3.2 347 1.2 102080 43
2011-02-23 07:42:03 51°13.663 2°55.961 2.2 351 1.2 102080 43
2011-02-23 07:42:08 51°13.664 2°55.961 2.8 355 1.2 102080 43
2011-02-23 07:42:13 51°13.664 2°55.961 4.8 339 1.2 102080 43
2011-02-23 07:42:18 51°13.663 2°55.961 3.7 342 1.2 102080 42
2011-02-23 07:42:23 51°13.664 2°55.961 4.7 345 1.2 102080 42
2011-02-23 07:42:28 51°13.664 2°55.961 3.6 349 1.2 102080 41
2011-02-23 07:42:33 51°13.664 2°55.961 4.2 347 1.2 102080 41
2011-02-23 07:42:38 51°13.664 2°55.961 4.8 344 1.2 102080 43
2011-02-23 07:42:43 51°13.664 2°55.961 2.8 359 1.2 102080 43
2011-02-23 07:42:48 51°13.664 2°55.961 3.3 342 1.2 102080 43
2011-02-23 07:42:53 51°13.664 2°55.961 3.3 350 1.2 102080 43
2011-02-23 07:42:58 51°13.664 2°55.961 3.8 352 1.2 102080 43
2011-02-23 07:43:03 51°13.664 2°55.961 4.1 353 1.2 102080 43
2011-02-23 07:43:08 51°13.664 2°55.961 3.5 336 1.2 102080 43
2011-02-23 07:43:13 51°13.664 2°55.961 5.5 347 1.2 102080 43
2011-02-23 07:43:18 51°13.664 2°55.961 4.1 344 1.2 102080 43
2011-02-23 07:43:23 51°13.664 2°55.961 3.7 355 1.2 102080 43
2011-02-23 07:43:28 51°13.664 2°55.961 3.9 2 1.2 102080 41
2011-02-23 07:43:33 51°13.664 2°55.961 4.4 347 1.2 102080 41
2011-02-23 07:43:38 51°13.664 2°55.962 4.8 352 1.2 102080 43
2011-02-23 07:43:43 51°13.664 2°55.961 5.1 344 1.2 102080 43
2011-02-23 07:43:48 51°13.664 2°55.961 5.9 337 1.2 102080 43
2011-02-23 07:43:53 51°13.663 2°55.961 6.6 343 1.2 102080 43
2011-02-23 07:43:58 51°13.663 2°55.961 6.5 347 1.2 102080 42
2011-02-23 07:44:03 51°13.663 2°55.961 5.6 350 1.2 102080 42
2011-02-23 07:44:08 51°13.663 2°55.961 5.4 355 1.2 102080 43
2011-02-23 07:44:13 51°13.663 2°55.961 5.3 350 1.2 102080 43
2011-02-23 07:44:17 51°13.663 2°55.961 5.2 347 1.2 102070 42
2011-02-23 07:44:22 51°13.663 2°55.961 3.7 350 1.2 102070 42
2011-02-23 07:44:27 51°13.663 2°55.961 4.1 346 1.2 102080 41
2011-02-23 07:44:32 51°13.663 2°55.962 4 352 1.2 102080 41
2011-02-23 07:44:37 51°13.664 2°55.962 3.5 348 1.2 102080 41
2011-02-23 07:44:42 51°13.664 2°55.962 2.8 336 1.2 102080 41
2011-02-23 07:44:47 51°13.664 2°55.962 3.6 348 1.2 102080 41
2011-02-23 07:44:52 51°13.664 2°55.962 4.2 341 1.2 102080 41
2011-02-23 07:44:58 51°13.664 2°55.961 3.4 342 1.2 102080 42
2011-02-23 07:45:03 51°13.663 2°55.961 4.8 340 1.2 102080 42
2011-02-23 07:45:07 51°13.663 2°55.961 0.4 341 1.2 102080 43
2011-02-23 07:45:12 51°13.663 2°55.961 6 351 1.2 102080 43
2011-02-23 07:45:17 51°13.663 2°55.961 5.6 351 1.2 102080 41
2011-02-23 07:45:23 51°13.663 2°55.962 4.4 359 1.2 102080 41
2011-02-23 07:45:28 51°13.663 2°55.962 5 1 1.2 102080 41
2011-02-23 07:45:33 51°13.664 2°55.962 3.2 -999 1.2 102080 41
2011-02-23 07:45:38 51°13.664 2°55.962 4.5 353 1.2 102080 41
2011-02-23 07:45:43 51°13.664 2°55.963 4.5 341 1.2 102080 41
2011-02-23 07:45:48 51°13.665 2°55.963 1.8 341 1.2 102080 43
2011-02-23 07:45:53 51°13.666 2°55.964 0.5 351 1.2 102080 43
2011-02-23 07:45:58 51°13.666 2°55.964 3.3 356 1.2 102080 41
2011-02-23 07:46:03 51°13.666 2°55.964 2.7 360 1.2 102080 41
2011-02-23 07:46:08 51°13.666 2°55.964 1.8 330 1.2 102080 41
2011-02-23 07:46:13 51°13.666 2°55.964 2.2 353 1.2 102080 41
2011-02-23 07:46:18 51°13.665 2°55.964 2.1 358 1.2 102080 42
2011-02-23 07:46:23 51°13.665 2°55.964 3.3 337 1.2 102080 42
2011-02-23 07:46:28 51°13.665 2°55.963 3.4 348 1.2 102080 41
2011-02-23 07:46:33 51°13.665 2°55.963 3.6 352 1.2 102080 41
2011-02-23 07:46:38 51°13.665 2°55.963 4.9 346 1.2 102080 41
2011-02-23 07:46:43 51°13.665 2°55.962 4.1 350 1.2 102080 41
2011-02-23 07:46:48 51°13.664 2°55.962 0.4 345 1.2 102080 43
2011-02-23 07:46:53 51°13.664 2°55.962 1.3 335 1.2 102080 43
2011-02-23 07:46:58 51°13.664 2°55.962 0.2 340 1.2 102080 43
2011-02-23 07:47:03 51°13.664 2°55.962 0.6 351 1.2 102080 43
2011-02-23 07:47:08 51°13.664 2°55.962 1.3 356 1.2 102080 42
2011-02-23 07:47:13 51°13.664 2°55.962 5.6 350 1.2 102080 42
2011-02-23 07:47:18 51°13.664 2°55.962 3.2 350 1.2 102080 43
2011-02-23 07:47:23 51°13.664 2°55.962 4.4 345 1.2 102080 43
2011-02-23 07:47:28 51°13.664 2°55.962 5.7 352 1.3 102080 43
2011-02-23 07:47:33 51°13.664 2°55.962 4.4 352 1.3 102080 43
2011-02-23 07:47:38 51°13.664 2°55.962 4.1 354 1.2 102080 42
2011-02-23 07:47:43 51°13.664 2°55.962 3.1 344 1.2 102080 42
2011-02-23 07:47:48 51°13.664 2°55.962 3.4 351 1.2 102080 43
2011-02-23 07:47:53 51°13.663 2°55.962 3.6 347 1.2 102080 43
2011-02-23 07:47:58 51°13.663 2°55.962 4.8 359 1.2 102080 42
2011-02-23 07:48:03 51°13.663 2°55.962 5.2 347 1.2 102080 42
2011-02-23 07:48:08 51°13.663 2°55.962 6 352 1.2 102080 43
2011-02-23 07:48:13 51°13.663 2°55.962 4.9 351 1.2 102080 43
2011-02-23 07:48:18 51°13.662 2°55.962 4.1 350 1.2 102080 41
2011-02-23 07:48:23 51°13.663 2°55.962 5.2 355 1.2 102080 41
2011-02-23 07:48:28 51°13.663 2°55.962 3.5 354 1.2 102080 42
2011-02-23 07:48:33 51°13.663 2°55.962 4 352 1.2 102080 42
2011-02-23 07:48:38 51°13.663 2°55.962 4 346 1.2 102080 41
2011-02-23 07:48:43 51°13.663 2°55.961 2.9 341 1.2 102080 41
2011-02-23 07:48:48 51°13.663 2°55.961 4.1 346 1.2 102070 41
2011-02-23 07:48:52 51°13.662 2°55.961 4.1 332 1.2 102070 41
2011-02-23 07:48:57 51°13.662 2°55.961 4.3 342 1.2 102080 42
2011-02-23 07:49:02 51°13.663 2°55.961 2.5 347 1.2 102080 42
2011-02-23 07:49:07 51°13.663 2°55.961 4.1 348 1.2 102080 42
2011-02-23 07:49:12 51°13.662 2°55.961 5 343 1.2 102080 42
2011-02-23 07:49:18 51°13.662 2°55.961 4.7 354 1.2 102080 43
2011-02-23 07:49:22 51°13.662 2°55.961 4.3 354 1.2 102080 43
2011-02-23 07:49:27 51°13.662 2°55.961 5.2 349 1.2 102080 41
2011-02-23 07:49:32 51°13.662 2°55.961 5.2 346 1.2 102080 41
2011-02-23 07:49:37 51°13.662 2°55.961 6 338 1.2 102080 41
2011-02-23 07:49:43 51°13.662 2°55.961 5.2 347 1.2 102080 41
2011-02-23 07:49:47 51°13.662 2°55.961 3.8 347 1.2 102080 42
2011-02-23 07:49:52 51°13.661 2°55.961 4.6 343 1.2 102080 42
2011-02-23 07:49:58 51°13.661 2°55.961 3.9 349 1.2 102080 42
2011-02-23 07:50:03 51°13.661 2°55.961 5 355 1.2 102080 42
2011-02-23 07:50:08 51°13.661 2°55.961 2.9 349 1.2 102080 43
2011-02-23 07:50:13 51°13.662 2°55.962 3.1 2 1.2 102080 43
2011-02-23 07:50:18 51°13.662 2°55.962 1.7 343 1.2 102080 42
2011-02-23 07:50:23 51°13.661 2°55.962 3.2 346 1.2 102080 42
2011-02-23 07:50:28 51°13.662 2°55.961 3.9 342 1.2 102080 41
2011-02-23 07:50:33 51°13.662 2°55.961 4.3 346 1.2 102080 41
2011-02-23 07:50:38 51°13.662 2°55.961 2.2 333 1.2 102080 43
2011-02-23 07:50:43 51°13.662 2°55.961 4 343 1.2 102080 43
2011-02-23 07:50:48 51°13.662 2°55.961 3.1 339 1.2 102080 42
2011-02-23 07:50:53 51°13.662 2°55.961 1.9 355 1.2 102080 42
2011-02-23 07:50:58 51°13.662 2°55.961 2.8 349 1.2 102080 43
2011-02-23 07:51:03 51°13.661 2°55.961 2.4 354 1.2 102080 43
2011-02-23 07:51:08 51°13.662 2°55.961 2 346 1.2 102080 42
2011-02-23 07:51:13 51°13.662 2°55.961 2.6 349 1.2 102080 42
2011-02-23 07:51:18 51°13.662 2°55.961 2.9 344 1.2 102080 41
2011-02-23 07:51:23 51°13.662 2°55.961 2.2 334 1.2 102080 41
2011-02-23 07:51:27 51°13.662 2°55.961 2.4 347 1.2 102080 42
2011-02-23 07:51:33 51°13.662 2°55.961 2.6 342 1.2 102080 42
2011-02-23 07:51:38 51°13.662 2°55.961 2.6 343 1.2 102080 42
2011-02-23 07:51:43 51°13.661 2°55.961 3.5 343 1.2 102080 42
2011-02-23 07:51:48 51°13.661 2°55.961 2.1 348 1.3 102080 41
2011-02-23 07:51:53 51°13.661 2°55.961 1.5 343 1.3 102080 41
2011-02-23 07:51:58 51°13.661 2°55.961 4 336 1.3 102080 42
2011-02-23 07:52:03 51°13.661 2°55.961 2.9 346 1.3 102080 42
2011-02-23 07:52:08 51°13.662 2°55.961 2.9 349 1.3 102080 43
2011-02-23 07:52:13 51°13.662 2°55.961 1 349 1.3 102080 43
2011-02-23 07:52:18 51°13.662 2°55.96 1.9 343 1.3 102080 41
2011-02-23 07:52:23 51°13.662 2°55.96 4.7 345 1.3 102080 41
2011-02-23 07:52:28 51°13.662 2°55.96 2.8 353 1.3 102080 42
2011-02-23 07:52:33 51°13.661 2°55.96 2.8 340 1.3 102080 42
2011-02-23 07:52:37 51°13.661 2°55.96 3.3 340 1.3 102080 43
2011-02-23 07:52:42 51°13.662 2°55.961 2.5 352 1.3 102080 43
2011-02-23 07:52:47 51°13.662 2°55.96 2 344 1.3 102090 41
2011-02-23 07:52:52 51°13.661 2°55.96 2.1 351 1.3 102090 41
2011-02-23 07:52:57 51°13.661 2°55.96 3 340 1.3 102080 42
2011-02-23 07:53:02 51°13.661 2°55.96 3.4 344 1.3 102080 42
2011-02-23 07:53:07 51°13.662 2°55.961 4.2 349 1.3 102080 41
2011-02-23 07:53:12 51°13.661 2°55.96 4 355 1.3 102080 41
2011-02-23 07:53:17 51°13.661 2°55.96 4.6 353 1.3 102080 42
2011-02-23 07:53:23 51°13.661 2°55.96 2.5 346 1.3 102080 42
2011-02-23 07:53:27 51°13.661 2°55.961 1.7 342 1.3 102080 42
2011-02-23 07:53:33 51°13.661 2°55.961 2.4 344 1.3 102080 42
2011-02-23 07:53:37 51°13.661 2°55.961 2.6 342 1.3 102080 42
2011-02-23 07:53:43 51°13.661 2°55.961 2.3 354 1.3 102080 42
2011-02-23 07:53:47 51°13.661 2°55.961 3.6 345 1.3 102080 41
2011-02-23 07:53:53 51°13.661 2°55.961 3.8 341 1.3 102080 41
2011-02-23 07:53:58 51°13.661 2°55.961 2.9 352 1.3 102080 43
2011-02-23 07:54:03 51°13.661 2°55.961 3.3 344 1.3 102080 43
2011-02-23 07:54:08 51°13.661 2°55.961 4.6 342 1.3 102080 41
2011-02-23 07:54:13 51°13.661 2°55.961 2.5 352 1.3 102080 41
2011-02-23 07:54:18 51°13.661 2°55.961 3.8 349 1.3 102080 43
2011-02-23 07:54:23 51°13.662 2°55.961 3.9 342 1.3 102080 43
2011-02-23 07:54:28 51°13.662 2°55.961 4.5 339 1.3 102080 41
2011-02-23 07:54:33 51°13.662 2°55.961 4.4 350 1.3 102080 41
2011-02-23 07:54:38 51°13.662 2°55.961 3.8 350 1.3 102080 41
2011-02-23 07:54:43 51°13.662 2°55.961 2.6 348 1.3 102080 41
2011-02-23 07:54:48 51°13.662 2°55.961 5.3 352 1.3 102080 43
2011-02-23 07:54:53 51°13.662 2°55.961 3.6 354 1.3 102080 43
2011-02-23 07:54:58 51°13.662 2°55.961 2.5 349 1.3 102080 43
2011-02-23 07:55:03 51°13.662 2°55.961 0.2 342 1.3 102080 43
2011-02-23 07:55:08 51°13.661 2°55.961 0.1 344 1.3 102080 41
2011-02-23 07:55:13 51°13.662 2°55.961 0.9 346 1.3 102080 41
2011-02-23 07:55:18 51°13.662 2°55.961 0.2 353 1.3 102080 42
2011-02-23 07:55:23 51°13.662 2°55.961 0.1 351 1.3 102080 42
2011-02-23 07:55:28 51°13.662 2°55.961 0.3 356 1.3 102080 42
2011-02-23 07:55:33 51°13.662 2°55.961 2 338 1.3 102080 42
2011-02-23 07:55:38 51°13.662 2°55.961 0.7 344 1.3 102080 41
2011-02-23 07:55:43 51°13.662 2°55.961 4.4 347 1.3 102080 41
2011-02-23 07:55:48 51°13.662 2°55.961 3.4 348 1.3 102080 42
2011-02-23 07:55:53 51°13.662 2°55.961 3.2 348 1.3 102080 42
2011-02-23 07:55:58 51°13.661 2°55.961 0.8 347 1.3 102080 43
2011-02-23 07:56:03 51°13.661 2°55.961 2.6 344 1.3 102080 43
2011-02-23 07:56:08 51°13.661 2°55.961 1.1 346 1.3 102080 43
2011-02-23 07:56:13 51°13.661 2°55.961 0.3 343 1.3 102080 43
2011-02-23 07:56:18 51°13.661 2°55.961 0.2 351 1.3 102080 42
2011-02-23 07:56:23 51°13.661 2°55.961 0.2 355 1.3 102080 42
2011-02-23 07:56:28 51°13.661 2°55.961 1.6 344 1.3 102080 42
2011-02-23 07:56:33 51°13.661 2°55.961 0.3 350 1.3 102080 42
2011-02-23 07:56:38 51°13.661 2°55.961 1.7 340 1.3 102080 43
2011-02-23 07:56:43 51°13.661 2°55.961 0.2 357 1.3 102080 43
2011-02-23 07:56:48 51°13.661 2°55.961 0.1 6 1.3 102080 43
2011-02-23 07:56:53 51°13.661 2°55.961 0.1 346 1.3 102080 43
2011-02-23 07:56:58 51°13.66 2°55.96 0.3 10 1.3 102080 42
2011-02-23 07:57:03 51°13.66 2°55.96 0.1 359 1.3 102080 42
2011-02-23 07:57:08 51°13.66 2°55.96 0.1 353 1.3 102080 42
2011-02-23 07:57:13 51°13.66 2°55.958 0.3 348 1.3 102080 42
2011-02-23 07:57:18 51°13.661 2°55.956 0.2 3 1.3 102080 43
2011-02-23 07:57:23 51°13.662 2°55.954 0.1 360 1.3 102080 43
2011-02-23 07:57:28 51°13.663 2°55.95 0.2 359 1.4 102080 42
2011-02-23 07:57:33 51°13.664 2°55.945 2.8 9 1.4 102080 42
2011-02-23 07:57:38 51°13.666 2°55.94 1.7 4 1.4 102080 42
2011-02-23 07:57:43 51°13.667 2°55.935 1.4 11 1.4 102080 42
2011-02-23 07:57:48 51°13.669 2°55.93 0.9 11 1.4 102080 43
2011-02-23 07:57:53 51°13.671 2°55.924 0.1 17 1.4 102080 43
2011-02-23 07:57:58 51°13.673 2°55.918 0.4 358 1.4 102080 42
2011-02-23 07:58:03 51°13.675 2°55.911 0.4 355 1.4 102080 42
2011-02-23 07:58:08 51°13.677 2°55.905 1.8 355 1.3 102070 43
2011-02-23 07:58:12 51°13.678 2°55.899 0.6 -999 1.3 102070 43
2011-02-23 07:58:17 51°13.68 2°55.891 0.4 10 1.3 102080 40
2011-02-23 07:58:23 51°13.683 2°55.882 0.4 17 1.3 102080 40
2011-02-23 07:58:28 51°13.684 2°55.873 0.4 11 1.3 102080 42
2011-02-23 07:58:32 51°13.685 2°55.866 0.1 23 1.3 102080 42
2011-02-23 07:58:37 51°13.687 2°55.857 0.1 18 1.3 102080 42
2011-02-23 07:58:43 51°13.689 2°55.847 1.5 18 1.3 102080 42
2011-02-23 07:58:48 51°13.69 2°55.837 0.3 26 1.3 102080 42
2011-02-23 07:58:52 51°13.691 2°55.83 2.1 21 1.3 102080 42
2011-02-23 07:58:57 51°13.692 2°55.82 0.8 33 1.3 102080 42
2011-02-23 07:59:03 51°13.692 2°55.809 0.2 32 1.3 102080 42
2011-02-23 07:59:07 51°13.692 2°55.801 1.4 30 1.3 102080 42
2011-02-23 07:59:13 51°13.693 2°55.79 1.9 26 1.3 102080 42
2011-02-23 07:59:17 51°13.693 2°55.783 2.8 20 1.3 102070 42
2011-02-23 07:59:23 51°13.692 2°55.772 0.4 27 1.3 102070 42
2011-02-23 07:59:27 51°13.692 2°55.765 1.5 34 1.3 102070 41
2011-02-23 07:59:32 51°13.692 2°55.757 0.6 29 1.3 102070 41
2011-02-23 07:59:38 51°13.69 2°55.748 0.1 25 1.3 102080 42
2011-02-23 07:59:43 51°13.69 2°55.741 2.5 35 1.3 102080 42
2011-02-23 07:59:48 51°13.689 2°55.736 1.9 36 1.3 102080 43
2011-02-23 07:59:52 51°13.689 2°55.734 0.8 37 1.3 102080 43
2011-02-23 07:59:57 51°13.69 2°55.733 0.1 37 1.3 102080 42
2011-02-23 08:00:03 51°13.692 2°55.734 0.6 42 1.3 102080 42
2011-02-23 08:00:07 51°13.693 2°55.735 1.4 32 1.3 102080 42
2011-02-23 08:00:12 51°13.697 2°55.737 0.2 40 1.3 102080 42
2011-02-23 08:00:17 51°13.701 2°55.738 0.1 43 1.3 102080 41
2011-02-23 08:00:22 51°13.706 2°55.738 0.1 53 1.3 102080 41
2011-02-23 08:00:27 51°13.712 2°55.737 -999 23 1.3 102080 42
2011-02-23 08:00:32 51°13.718 2°55.735 -999 53 1.3 102080 42
2011-02-23 08:00:37 51°13.725 2°55.731 -999 23 1.3 102080 42
2011-02-23 08:00:42 51°13.732 2°55.726 0.1 311 1.3 102080 42
2011-02-23 08:00:47 51°13.739 2°55.72 0.1 20 1.3 102080 42
2011-02-23 08:00:52 51°13.747 2°55.713 0.1 55 1.3 102080 42
2011-02-23 08:00:57 51°13.755 2°55.705 1 23 1.3 102080 40
2011-02-23 08:01:02 51°13.763 2°55.698 0.1 304 1.3 102080 40
2011-02-23 08:01:07 51°13.772 2°55.689 0.1 25 1.3 102080 42
2011-02-23 08:01:12 51°13.781 2°55.681 0.1 54 1.3 102080 42
2011-02-23 08:01:17 51°13.79 2°55.672 -999 22 1.3 102080 41
2011-02-23 08:01:22 51°13.799 2°55.663 0.1 48 1.3 102080 41
2011-02-23 08:01:27 51°13.809 2°55.655 0.1 20 1.3 102090 42
2011-02-23 08:01:32 51°13.818 2°55.646 0.1 53 1.3 102090 42
2011-02-23 08:01:37 51°13.827 2°55.638 -999 24 1.3 102080 42
2011-02-23 08:01:42 51°13.837 2°55.629 -999 307 1.3 102080 42
2011-02-23 08:01:47 51°13.847 2°55.621 -999 260 1.3 102080 42
2011-02-23 08:01:52 51°13.857 2°55.612 0.2 305 1.3 102080 42
2011-02-23 08:01:57 51°13.867 2°55.605 0.1 266 1.3 102080 42
2011-02-23 08:02:02 51°13.877 2°55.597 -999 309 1.3 102080 42
2011-02-23 08:02:07 51°13.887 2°55.589 -999 24 1.3 102080 42
2011-02-23 08:02:12 51°13.898 2°55.581 -999 53 1.3 102080 42
2011-02-23 08:02:17 51°13.908 2°55.573 -999 23 1.3 102080 42
2011-02-23 08:02:22 51°13.918 2°55.566 -999 53 1.3 102080 42
2011-02-23 08:02:27 51°13.929 2°55.558 -999 22 1.3 102080 42
2011-02-23 08:02:32 51°13.94 2°55.55 -999 53 1.3 102080 42
2011-02-23 08:02:37 51°13.95 2°55.543 -999 23 1.3 102080 42
2011-02-23 08:02:42 51°13.961 2°55.535 0.1 53 1.3 102080 42
2011-02-23 08:02:47 51°13.972 2°55.527 0.1 22 1.3 102070 42
2011-02-23 08:02:52 51°13.983 2°55.519 -999 53 1.3 102070 42
2011-02-23 08:02:56 51°13.992 2°55.513 -999 22 1.3 102080 42
2011-02-23 08:03:02 51°14.004 2°55.504 -999 54 1.3 102080 42
2011-02-23 08:03:07 51°14.015 2°55.496 -999 261 1.3 102070 42
2011-02-23 08:03:12 51°14.025 2°55.487 -999 53 1.3 102070 42
2011-02-23 08:03:16 51°14.034 2°55.481 -999 22 1.3 102080 42
2011-02-23 08:03:21 51°14.045 2°55.473 -999 307 1.3 102080 42
2011-02-23 08:03:26 51°14.056 2°55.465 0.1 19 1.3 102070 42
2011-02-23 08:03:32 51°14.069 2°55.456 0.1 53 1.3 102070 42
2011-02-23 08:03:36 51°14.078 2°55.449 0.1 22 1.3 102070 41
2011-02-23 08:03:41 51°14.089 2°55.439 -999 53 1.3 102070 41
2011-02-23 08:03:46 51°14.1 2°55.43 -999 25 1.3 102080 42
2011-02-23 08:03:52 51°14.115 2°55.42 0.1 52 1.3 102080 42
2011-02-23 08:03:57 51°14.126 2°55.411 0.1 22 1.3 102070 42
2011-02-23 08:04:02 51°14.139 2°55.402 0.1 52 1.3 102070 42
2011-02-23 08:04:07 51°14.151 2°55.392 -999 22 1.3 102070 43
2011-02-23 08:04:12 51°14.163 2°55.383 -999 53 1.3 102070 43
2011-02-23 08:04:17 51°14.175 2°55.373 -999 22 1.3 102070 42
2011-02-23 08:04:22 51°14.187 2°55.363 -999 53 1.3 102070 42
2011-02-23 08:04:27 51°14.199 2°55.353 -999 22 1.3 102070 42
2011-02-23 08:04:32 51°14.211 2°55.342 -999 53 1.3 102070 42
2011-02-23 08:04:37 51°14.224 2°55.331 -999 22 1.3 102070 42
2011-02-23 08:04:42 51°14.237 2°55.319 -999 53 1.3 102070 42
2011-02-23 08:04:46 51°14.247 2°55.31 -999 22 1.4 102070 42
2011-02-23 08:04:52 51°14.262 2°55.295 -999 53 1.4 102070 42
2011-02-23 08:04:56 51°14.272 2°55.286 -999 266 1.4 102070 42
2011-02-23 08:05:01 51°14.285 2°55.274 -999 307 1.4 102070 42
2011-02-23 08:05:06 51°14.298 2°55.261 -999 22 1.4 102070 42
2011-02-23 08:05:11 51°14.312 2°55.248 -999 307 1.4 102070 42
2011-02-23 08:05:16 51°14.325 2°55.236 -999 263 1.4 102070 42
2011-02-23 08:05:20 51°14.335 2°55.225 -999 57 1.4 102070 42
2011-02-23 08:05:25 51°14.349 2°55.212 -999 26 1.4 102070 42
2011-02-23 08:05:30 51°14.362 2°55.199 -999 307 1.4 102070 42
2011-02-23 08:05:35 51°14.375 2°55.185 0.1 262 1.4 102070 42
2011-02-23 08:05:40 51°14.389 2°55.17 0.1 53 1.4 102070 42
2011-02-23 08:05:44 51°14.399 2°55.159 -999 260 1.4 102070 41
2011-02-23 08:05:49 51°14.413 2°55.145 0.1 53 1.4 102070 41
2011-02-23 08:05:54 51°14.427 2°55.13 0.1 252 1.4 102070 42
2011-02-23 08:05:59 51°14.441 2°55.115 0.1 55 1.4 102070 42
2011-02-23 08:06:04 51°14.455 2°55.101 0.1 261 1.4 102070 42
2011-02-23 08:06:08 51°14.466 2°55.09 0.1 302 1.4 102070 42
2011-02-23 08:06:14 51°14.483 2°55.072 0.1 263 1.4 102070 41
2011-02-23 08:06:19 51°14.497 2°55.057 0.4 310 1.4 102070 41
2011-02-23 08:06:24 51°14.511 2°55.041 1.3 255 1.4 102070 42
2011-02-23 08:06:28 51°14.523 2°55.028 2.5 305 1.4 102070 42
2011-02-23 08:06:34 51°14.539 2°55.006 3.1 19 1.4 102070 42
2011-02-23 08:06:39 51°14.552 2°54.987 2.1 305 1.4 102070 42
2011-02-23 08:06:44 51°14.566 2°54.969 1.5 249 1.4 102060 42
2011-02-23 08:06:48 51°14.577 2°54.953 0.9 304 1.4 102060 42
2011-02-23 08:06:54 51°14.594 2°54.931 0.2 247 1.4 102070 41
2011-02-23 08:06:59 51°14.609 2°54.912 3.1 306 1.4 102070 41
2011-02-23 08:07:04 51°14.623 2°54.894 3.2 251 1.4 102060 41
2011-02-23 08:07:08 51°14.634 2°54.879 2.3 311 1.4 102060 41
2011-02-23 08:07:14 51°14.652 2°54.857 1.6 256 1.4 102060 41
2011-02-23 08:07:19 51°14.667 2°54.839 0.9 303 1.4 102060 41
2011-02-23 08:07:24 51°14.682 2°54.822 0.6 265 1.4 102060 41
2011-02-23 08:07:28 51°14.694 2°54.807 0.2 304 1.4 102060 41
2011-02-23 08:07:34 51°14.712 2°54.786 0.1 266 1.4 102060 42
2011-02-23 08:07:39 51°14.727 2°54.768 1 306 1.4 102060 42
2011-02-23 08:07:44 51°14.742 2°54.752 0.2 258 1.4 102060 42
2011-02-23 08:07:49 51°14.757 2°54.735 0.1 307 1.4 102060 42
2011-02-23 08:07:54 51°14.773 2°54.72 0.1 22 1.5 102060 41
2011-02-23 08:07:59 51°14.789 2°54.703 0.1 307 1.5 102060 41
2011-02-23 08:08:04 51°14.805 2°54.688 0.1 265 1.4 102060 43
2011-02-23 08:08:09 51°14.82 2°54.672 0.1 307 1.4 102060 43
2011-02-23 08:08:14 51°14.836 2°54.657 -999 252 1.5 102060 42
2011-02-23 08:08:19 51°14.852 2°54.641 -999 307 1.5 102060 42
2011-02-23 08:08:24 51°14.868 2°54.626 -999 267 1.5 102060 42
2011-02-23 08:08:29 51°14.884 2°54.612 0.1 59 1.5 102060 42
2011-02-23 08:08:34 51°14.9 2°54.597 0.1 265 1.5 102060 42
2011-02-23 08:08:39 51°14.916 2°54.582 1.3 308 1.5 102060 42
2011-02-23 08:08:44 51°14.932 2°54.567 3.2 26 1.5 102050 42
2011-02-23 08:08:48 51°14.945 2°54.555 1.8 52 1.5 102050 42
2011-02-23 08:08:54 51°14.965 2°54.539 1.1 18 1.5 102050 41
2011-02-23 08:08:59 51°14.98 2°54.524 2.6 52 1.5 102050 41
2011-02-23 08:09:04 51°14.996 2°54.51 2.6 19 1.5 102060 43
2011-02-23 08:09:08 51°15.008 2°54.496 1.5 305 1.5 102060 43
2011-02-23 08:09:14 51°15.027 2°54.477 1.7 261 1.5 102060 42
2011-02-23 08:09:19 51°15.041 2°54.458 2.3 310 1.5 102060 42
2011-02-23 08:09:24 51°15.056 2°54.441 1.2 262 1.5 102060 43
2011-02-23 08:09:28 51°15.067 2°54.425 2.9 310 1.5 102060 43
2011-02-23 08:09:34 51°15.084 2°54.403 3.4 267 1.5 102060 41
2011-02-23 08:09:39 51°15.099 2°54.385 2.7 309 1.5 102060 41
2011-02-23 08:09:44 51°15.113 2°54.366 1.8 267 1.5 102050 42
2011-02-23 08:09:49 51°15.127 2°54.346 2.4 312 1.5 102050 42
2011-02-23 08:09:54 51°15.141 2°54.327 2.6 258 1.6 102050 43
2011-02-23 08:09:59 51°15.155 2°54.308 3 304 1.6 102050 43
2011-02-23 08:10:04 51°15.17 2°54.288 3.9 259 1.6 102060 43
2011-02-23 08:10:09 51°15.183 2°54.268 2.2 309 1.6 102060 43
2011-02-23 08:10:14 51°15.197 2°54.247 2.4 259 1.6 102060 42
2011-02-23 08:10:19 51°15.211 2°54.228 4.2 303 1.6 102060 42
2011-02-23 08:10:24 51°15.226 2°54.209 4.5 11 1.6 102060 41
2011-02-23 08:10:29 51°15.24 2°54.19 3.9 52 1.6 102060 41
2011-02-23 08:10:34 51°15.255 2°54.172 4.7 26 1.6 102060 42
2011-02-23 08:10:39 51°15.27 2°54.154 3.7 313 1.6 102060 42
2011-02-23 08:10:44 51°15.285 2°54.136 2.1 261 1.6 102060 42
2011-02-23 08:10:49 51°15.299 2°54.118 3.2 309 1.6 102060 42
2011-02-23 08:10:54 51°15.314 2°54.1 1.6 261 1.6 102060 42
2011-02-23 08:10:59 51°15.328 2°54.082 2.5 309 1.6 102060 42
2011-02-23 08:11:04 51°15.343 2°54.063 2.7 252 1.6 102060 41
2011-02-23 08:11:08 51°15.354 2°54.048 3.9 303 1.6 102060 41
2011-02-23 08:11:14 51°15.372 2°54.026 1.9 262 1.6 102060 43
2011-02-23 08:11:19 51°15.386 2°54.007 1.2 308 1.6 102060 43
2011-02-23 08:11:24 51°15.4 2°53.988 2.7 260 1.7 102060 43
2011-02-23 08:11:28 51°15.412 2°53.973 3.6 306 1.7 102060 43
2011-02-23 08:11:34 51°15.429 2°53.95 3.2 261 1.7 102060 41
2011-02-23 08:11:39 51°15.443 2°53.93 2.2 311 1.7 102060 41
2011-02-23 08:11:44 51°15.457 2°53.911 1.6 261 1.7 102060 41
2011-02-23 08:11:48 51°15.469 2°53.895 3.9 305 1.7 102060 41
2011-02-23 08:11:54 51°15.486 2°53.872 5.2 259 1.7 102060 42
2011-02-23 08:11:59 51°15.501 2°53.852 3.9 306 1.7 102060 42
2011-02-23 08:12:04 51°15.516 2°53.832 1.7 265 1.7 102060 42
2011-02-23 08:12:09 51°15.53 2°53.813 3.6 305 1.7 102060 42
2011-02-23 08:12:14 51°15.545 2°53.793 1.8 256 1.7 102060 43
2011-02-23 08:12:19 51°15.56 2°53.774 2.3 303 1.7 102060 43
2011-02-23 08:12:24 51°15.576 2°53.756 2.1 262 1.7 102070 42
2011-02-23 08:12:29 51°15.591 2°53.738 1.1 308 1.7 102070 42
2011-02-23 08:12:34 51°15.607 2°53.719 0.8 264 1.7 102070 44
2011-02-23 08:12:39 51°15.623 2°53.701 2.9 308 1.7 102070 44
2011-02-23 08:12:44 51°15.638 2°53.682 3.1 265 1.7 102070 42
2011-02-23 08:12:49 51°15.653 2°53.664 4.7 310 1.7 102070 42
2011-02-23 08:12:54 51°15.669 2°53.645 3.7 262 1.7 102070 42
2011-02-23 08:12:59 51°15.684 2°53.625 3.7 311 1.7 102070 42
2011-02-23 08:13:04 51°15.698 2°53.605 3.8 267 1.7 102070 42
2011-02-23 08:13:09 51°15.713 2°53.585 4.1 304 1.7 102070 42
2011-02-23 08:13:14 51°15.727 2°53.566 3.1 266 1.7 102070 42
2011-02-23 08:13:19 51°15.743 2°53.547 2.1 313 1.7 102070 42
2011-02-23 08:13:24 51°15.758 2°53.529 4.5 259 1.7 102070 42
2011-02-23 08:13:28 51°15.77 2°53.514 3.2 311 1.7 102070 42
2011-02-23 08:13:34 51°15.788 2°53.491 1.3 264 1.7 102070 42
2011-02-23 08:13:39 51°15.803 2°53.472 2.8 311 1.7 102070 42
2011-02-23 08:13:44 51°15.818 2°53.455 3.7 266 1.7 102070 42
2011-02-23 08:13:48 51°15.831 2°53.442 2.6 305 1.7 102070 42
2011-02-23 08:13:53 51°15.847 2°53.425 1.6 264 1.8 102070 42
2011-02-23 08:13:59 51°15.866 2°53.405 1.3 310 1.8 102070 42
2011-02-23 08:14:04 51°15.882 2°53.388 2.3 263 1.8 102070 42
2011-02-23 08:14:08 51°15.895 2°53.375 4.5 48 1.8 102070 42
2011-02-23 08:14:13 51°15.91 2°53.358 3.3 29 1.8 102070 42
2011-02-23 08:14:19 51°15.929 2°53.338 3.2 52 1.8 102070 42
2011-02-23 08:14:24 51°15.945 2°53.321 2.3 26 1.7 102070 42
2011-02-23 08:14:28 51°15.957 2°53.307 2.6 50 1.7 102070 42
2011-02-23 08:14:34 51°15.976 2°53.287 2 24 1.7 102070 41
2011-02-23 08:14:39 51°15.991 2°53.27 1.1 53 1.7 102070 41
2011-02-23 08:14:44 51°16.007 2°53.253 2 262 1.7 102070 42
2011-02-23 08:14:48 51°16.02 2°53.241 4.1 49 1.7 102070 42
2011-02-23 08:14:54 51°16.039 2°53.222 3.7 270 1.7 102070 42
2011-02-23 08:14:59 51°16.056 2°53.207 2.9 312 1.7 102070 42
2011-02-23 08:15:04 51°16.072 2°53.193 3.1 270 1.7 102070 41
2011-02-23 08:15:08 51°16.085 2°53.181 3.8 312 1.7 102070 41
2011-02-23 08:15:14 51°16.105 2°53.164 3.2 268 1.7 102070 41
2011-02-23 08:15:19 51°16.121 2°53.15 3.3 310 1.7 102070 41
2011-02-23 08:15:24 51°16.138 2°53.135 1.5 266 1.7 102070 43
2011-02-23 08:15:28 51°16.151 2°53.123 2.9 309 1.7 102070 43
2011-02-23 08:15:34 51°16.17 2°53.103 3.7 268 1.7 102070 43
2011-02-23 08:15:39 51°16.186 2°53.088 3.5 312 1.7 102070 43
2011-02-23 08:15:44 51°16.202 2°53.072 3.1 266 1.7 102070 41
2011-02-23 08:15:48 51°16.215 2°53.06 1.9 305 1.7 102070 41
2011-02-23 08:15:53 51°16.231 2°53.044 0.9 266 1.7 102070 43
2011-02-23 08:15:59 51°16.25 2°53.025 2.1 46 1.7 102070 43
2011-02-23 08:16:04 51°16.267 2°53.012 1 20 1.7 102060 41
2011-02-23 08:16:08 51°16.28 2°53 1.2 52 1.7 102060 41
2011-02-23 08:16:13 51°16.297 2°52.987 2.3 19 1.7 102070 43
2011-02-23 08:16:19 51°16.318 2°52.972 3.1 49 1.7 102070 43
2011-02-23 08:16:24 51°16.335 2°52.96 1.5 21 1.8 102070 43
2011-02-23 08:16:28 51°16.349 2°52.95 1.2 52 1.8 102070 43
2011-02-23 08:16:33 51°16.366 2°52.939 0.2 23 1.8 102070 43
2011-02-23 08:16:39 51°16.387 2°52.924 0.1 48 1.8 102070 43
2011-02-23 08:16:44 51°16.404 2°52.912 0.2 21 1.8 102070 43
2011-02-23 08:16:48 51°16.418 2°52.902 2.1 52 1.8 102070 43
2011-02-23 08:16:54 51°16.438 2°52.887 2.1 25 1.8 102070 42
2011-02-23 08:16:59 51°16.455 2°52.875 2.8 306 1.8 102070 42
2011-02-23 08:17:04 51°16.472 2°52.862 2.9 24 1.8 102070 41
2011-02-23 08:17:08 51°16.486 2°52.852 0.9 309 1.8 102070 41
2011-02-23 08:17:14 51°16.506 2°52.836 0.5 261 1.8 102070 44
2011-02-23 08:17:19 51°16.524 2°52.824 0.2 54 1.8 102070 44
2011-02-23 08:17:24 51°16.541 2°52.811 0.1 23 1.8 102070 43
2011-02-23 08:17:28 51°16.554 2°52.801 0.1 309 1.8 102070 43
2011-02-23 08:17:34 51°16.575 2°52.786 0.1 22 1.8 102070 42
2011-02-23 08:17:39 51°16.592 2°52.774 0.1 58 1.8 102070 42
2011-02-23 08:17:44 51°16.609 2°52.761 0.1 19 1.8 102070 41
2011-02-23 08:17:48 51°16.623 2°52.751 0.1 56 1.8 102070 41
2011-02-23 08:17:54 51°16.643 2°52.736 0.1 23 1.8 102070 43
2011-02-23 08:17:59 51°16.66 2°52.724 3.6 48 1.8 102070 43
2011-02-23 08:18:04 51°16.677 2°52.712 3 18 1.9 102070 43
2011-02-23 08:18:08 51°16.692 2°52.704 3.9 56 1.9 102070 43
2011-02-23 08:18:13 51°16.709 2°52.695 0.7 18 1.9 102070 42
2011-02-23 08:18:19 51°16.731 2°52.685 0.2 43 1.9 102070 42
2011-02-23 08:18:24 51°16.748 2°52.678 0.2 20 1.9 102060 42
2011-02-23 08:18:28 51°16.763 2°52.672 1.5 72 1.9 102060 42
2011-02-23 08:18:33 51°16.78 2°52.666 1.5 18 1.9 102070 43
2011-02-23 08:18:39 51°16.802 2°52.659 1.8 57 1.9 102070 43
2011-02-23 08:18:44 51°16.82 2°52.652 0.2 25 1.9 102070 43
2011-02-23 08:18:48 51°16.834 2°52.647 0.1 53 1.9 102070 43
2011-02-23 08:18:53 51°16.852 2°52.64 0.1 20 1.9 102070 43
2011-02-23 08:18:59 51°16.873 2°52.632 0.4 51 1.9 102070 43
2011-02-23 08:19:04 51°16.891 2°52.624 0.6 20 1.9 102070 43
2011-02-23 08:19:08 51°16.905 2°52.617 0.1 58 1.9 102070 43
2011-02-23 08:19:14 51°16.926 2°52.607 0.1 21 1.9 102070 44
2011-02-23 08:19:19 51°16.944 2°52.599 0.1 60 1.9 102070 44
2011-02-23 08:19:24 51°16.962 2°52.59 0.2 21 2 102070 43
2011-02-23 08:19:28 51°16.976 2°52.583 1 49 2 102070 43
2011-02-23 08:19:34 51°16.998 2°52.573 0.7 19 2 102070 42
2011-02-23 08:19:39 51°17.016 2°52.566 0.2 55 2 102070 42
2011-02-23 08:19:44 51°17.034 2°52.559 0.1 23 2 102060 43
2011-02-23 08:19:48 51°17.048 2°52.554 0.1 53 2 102060 43